Location: Beulah
(33.1426°N, 83.0557°W)
Time: 09:04:56
(UTC+00:00)

X-37B - Visible Passes

Search period start: 02 December 2021 00:00
Search period end: 12 December 2021 00:00
Orbit: 330 x 341 km, 45.0° (Epoch: 20 November)

Date Brightness Start Highest point End Pass type
(mag) Time Alt. Az. Time Alt. Az. Time Alt. Az.
03 Dec 1.8 23:32:35 10° SSW 23:34:56 23° SE 23:35:19 23° SE visible
04 Dec 0.2 23:52:25 10° SW 23:55:10 82° SW 23:55:10 82° SW visible
06 Dec 2.5 00:13:13 10° W 00:14:56 24° WNW 00:14:56 24° WNW visible
06 Dec 0.3 22:57:50 10° SW 23:00:42 87° SE 23:03:24 11° ENE visible
07 Dec 1.8 23:18:38 10° W 23:21:12 29° NNW 23:23:02 15° NNE visible
08 Dec 2.7 23:40:09 10° WNW 23:41:54 15° NNW 23:42:38 14° N visible
